This is the latest recevied weather packets stored in our database for station/object GBTWP-2. If no packets are shown the sender has not sent any weather packets the latest 10 day(s).
| Time | Temp. | Humidity | Pressure | Rain* | Wind** | Luminosity | Snow |
|---|---|---|---|---|---|---|---|
| 1788280920 | 31.11° C | 69% | 1017.3 hPa | 0 mm | - | 290 W/m² | - |
| 1788280620 | 30.56° C | 71% | 1017.5 hPa | 0 mm | - | 553 W/m² | - |
| 1788280320 | 31.11° C | 69% | 1017.6 hPa | 0 mm | - | 183 W/m² | - |
| 1788280020 | 31.11° C | 70% | 1017.6 hPa | 0 mm | - | 370 W/m² | - |
| 1788279720 | 30° C | 71% | 1017.8 hPa | 0 mm | - | 607 W/m² | - |
| 1788279418 | 30.56° C | 71% | 1017.8 hPa | 0 mm | - | 507 W/m² | - |
| 1788279121 | 30° C | 71% | 1017.8 hPa | 0 mm | - | 556 W/m² | - |
| 1788278827 | 30° C | 73% | 1018 hPa | 0 mm | - | 512 W/m² | - |
| 1788278520 | 30° C | 72% | 1017.9 hPa | 0 mm | - | 455 W/m² | - |
| 1788278221 | 29.44° C | 73% | 1017.9 hPa | 0 mm | - | 508 W/m² | - |
| 1788277920 | 30° C | 72% | 1017.8 hPa | 0 mm | - | 161 W/m² | - |
| 1788277620 | 30.56° C | 71% | 1017.9 hPa | 0 mm | - | 507 W/m² | - |
| 1788277320 | 30° C | 73% | 1017.9 hPa | 0 mm | - | 490 W/m² | - |
| 1788277020 | 29.44° C | 74% | 1018 hPa | 0 mm | - | 508 W/m² | - |
| 1788276721 | 28.89° C | 73% | 1018 hPa | 0 mm | - | 495 W/m² | - |
| 1788276420 | 28.89° C | 75% | 1017.8 hPa | 0 mm | - | 499 W/m² | - |
| 1788276120 | 28.89° C | 74% | 1018 hPa | 0 mm | - | 472 W/m² | - |
| 1788275819 | 29.44° C | 73% | 1017.9 hPa | 0 mm | - | 467 W/m² | - |
| 1788275520 | 28.89° C | 75% | 1018.1 hPa | 0 mm | - | 468 W/m² | - |
| 1788275220 | 28.33° C | 75% | 1017.9 hPa | 0 mm | - | 458 W/m² | - |
| 1788274920 | 28.33° C | 75% | 1018.2 hPa | 0 mm | - | 447 W/m² | - |
| 1788274630 | 28.33° C | 76% | 1018 hPa | 0 mm | - | 422 W/m² | - |
| 1788274320 | 28.33° C | 75% | 1017.9 hPa | 0 mm | - | 423 W/m² | - |
| 1788274020 | 27.78° C | 77% | 1017.9 hPa | 0 mm | - | 414 W/m² | - |
| 1788273720 | 27.22° C | 78% | 1017.9 hPa | 0 mm | - | 413 W/m² | - |
* Rain latest hour (hover to see other rain measurements)
** Current wind speed in m/s (hover to see current wind gust speed)